Fort Riley, KS

4:03 AM CST on December 09, 2016 (GMT -0600)
Marshall Army Air Field

Weather History for KFRI - October, 2013

Change the Weather History Date:

Tuesday, October 15, 2013

  Actual Average (KMHK) Record (KMHK)
Temperature  
Mean Temperature 51 °F -  
Max Temperature 59 °F 68 °F 89 °F (1999)
Min Temperature 43 °F 40 °F 30 °F (2002)
Degree Days  
Heating Degree Days 14    
Growing Degree Days 1 (Base 50)    
Moisture  
Dew Point 39 °F    
Average Humidity 60    
Maximum Humidity 91    
Minimum Humidity 45    
Precipitation  
Precipitation 0.00 in - - ()
Sea Level Pressure  
Sea Level Pressure 30.05 in    
Wind  
Wind Speed 10 mph (WNW)    
Max Wind Speed 17 mph    
Max Gust Speed 24 mph    
Visibility 10 miles    
Events      
Averages and records for this station are not official NWS values.
T = Trace of Precipitation, MM = Missing Value Source: NWS Daily Summary

Daily Weather History Graph

Daily Weather History Graph

Search for Another Location

Airport or City:

Trip Planner

Search our weather history database for the weather conditions in past years. The results will help you decide how hot, cold, wet, or windy it might be!

Date:

Astronomy

Oct. 15, 2013 Rise Set
Actual Time 7:36 AM CDT 6:47 PM CDT
Civil Twilight 7:09 AM CDT 7:14 PM CDT
Nautical Twilight 6:38 AM CDT 7:45 PM CDT
Astronomical Twilight 6:08 AM CDT 8:16 PM CDT
Moon 4:52 PM CDT (10/15) 4:02 AM CDT (10/15)
Length of Visible Light 12h 04m
Length of Day
11h 11m
Waxing Gibbous, 88% of the Moon is Illuminated
Oct 15
Waxing Gibbous
Oct 18
Full
Oct 26
Last Quarter
Nov 3
New
Nov 9
First Quarter

Hourly Weather History & Observations

Time (CDT) Temp. Windchill Dew Point Humidity Pressure Visibility Wind Dir Wind Speed Gust Speed Precip Events Conditions
12:58 AM 57.9 °F - 55.4 °F 91% 29.90 in 10.0 mi West 9.2 mph - N/A   Overcast
1:58 AM 54.9 °F - 50.5 °F 85% 29.94 in 10.0 mi West 6.9 mph - N/A   Partly Cloudy
2:58 AM 52.7 °F - 47.5 °F 82% 29.96 in 10.0 mi West 8.1 mph - N/A   Clear
3:58 AM 50.2 °F - 45.1 °F 83% 29.97 in 10.0 mi West 4.6 mph - N/A   Partly Cloudy
4:58 AM 48.4 °F - 40.5 °F 74% 30.00 in 10.0 mi Variable 5.8 mph - N/A   Clear
5:58 AM 46.9 °F - 40.8 °F 79% 30.01 in 10.0 mi West 5.8 mph - N/A   Clear
6:58 AM 43.2 °F 41.5 °F 40.3 °F 90% 30.02 in 10.0 mi WSW 3.5 mph - N/A   Clear
7:58 AM 45.0 °F 41.8 °F 39.6 °F 81% 30.04 in 10.0 mi West 5.8 mph - N/A   Clear
8:58 AM 47.7 °F - 37.0 °F 67% 30.07 in 10.0 mi WNW 8.1 mph 17.3 mph N/A   Clear
9:58 AM 49.6 °F - 36.7 °F 61% 30.07 in 10.0 mi WNW 13.8 mph 21.9 mph N/A   Clear
10:58 AM 51.8 °F - 36.5 °F 56% 30.06 in 10.0 mi NW 13.8 mph 23.0 mph N/A   Clear
11:58 AM 53.8 °F - 36.9 °F 53% 30.07 in 10.0 mi WNW 15.0 mph 19.6 mph N/A   Clear
12:58 PM 55.9 °F - 37.2 °F 49% 30.07 in 10.0 mi WNW 15.0 mph 24.2 mph N/A   Clear
1:58 PM 57.6 °F - 37.9 °F 48% 30.06 in 10.0 mi WNW 13.8 mph 24.2 mph N/A   Clear
2:09 PM 57.2 °F - 37.4 °F 48% 30.05 in 10.0 mi NNW 11.5 mph 24.2 mph N/A   Clear
2:24 PM 57.2 °F - 37.4 °F 48% 30.05 in 10.0 mi West 15.0 mph 24.2 mph N/A   Clear
2:29 PM 59.0 °F - 37.4 °F 45% 30.05 in 10.0 mi NNW 12.7 mph 24.2 mph N/A   Clear
2:30 PM 59.0 °F - 37.4 °F 45% 30.05 in 10.0 mi NNW 12.7 mph 23.0 mph N/A   Clear
2:58 PM 58.3 °F - 37.2 °F 45% 30.05 in 10.0 mi NW 17.3 mph 24.2 mph N/A   Clear
3:26 PM 59.0 °F - 37.4 °F 45% 30.04 in 10.0 mi WNW 16.1 mph 21.9 mph N/A   Clear
3:58 PM 58.8 °F - 37.2 °F 45% 30.05 in 10.0 mi NW 15.0 mph 20.7 mph N/A   Clear
4:58 PM 58.6 °F - 37.0 °F 45% 30.05 in 10.0 mi NW 15.0 mph 23.0 mph N/A   Scattered Clouds
5:58 PM 55.9 °F - 36.1 °F 47% 30.07 in 10.0 mi NW 10.4 mph 17.3 mph N/A   Partly Cloudy
6:58 PM 53.1 °F - 36.3 °F 53% 30.10 in 10.0 mi NW 10.4 mph 17.3 mph N/A   Overcast
7:58 PM 52.2 °F - 36.3 °F 55% 30.12 in 10.0 mi NW 9.2 mph - N/A   Overcast
8:58 PM 51.3 °F - 35.6 °F 55% 30.13 in 10.0 mi NNW 10.4 mph - N/A   Overcast
9:58 PM 50.2 °F - 35.6 °F 57% 30.14 in 10.0 mi NNW 8.1 mph - N/A   Overcast
10:58 PM 49.8 °F - 35.6 °F 58% 30.15 in 10.0 mi NW 8.1 mph - N/A   Overcast
11:58 PM 49.3 °F - 36.1 °F 61% 30.14 in 10.0 mi NW 6.9 mph - N/A   Overcast